#timestamp,LO_Frequency,Hit,StdDev 
1560999615.3,286047007.3,N
1560999635.1,286047013.6,N
1560999655.9,286047011.2,N
1560999675.7,286047011.4,N
1560999695.6,286047013.8,N
1560999715.4,286047011.7,N
1560999735.2,286047006.1,N
1560999755.1,286047004.1,N
1560999756.0,286047004.1,N
1560999775.8,286047004.4,N
1560999795.7,286047007.0,N
1560999815.5,286047006.9,N
1560999835.3,286047006.5,N
1560999855.2,286047007.5,N
1560999875.0,286047006.0,N
1560999875.9,286047006.0,N
1560999895.8,286047003.2,N
1560999915.6,286047001.9,N
1560999935.4,286046998.2,N
1560999955.3,286046998.2,N
1560999975.1,286046996.6,N
1560999995.8,286046999.1,N
1561000015.7,286047002.1,N
1561000035.5,286047001.1,N
1561000055.4,286046996.5,N
1561000075.2,286046998.9,N
1561000095.0,286047005.9,N
1561000095.9,286047005.9,N
1561000115.8,286047007.1,N
1561000135.6,286047006.8,N
1561000155.5,286047010.2,N
1561000175.3,286047008.2,N
1561000195.1,286047009.1,N
1561000215.9,286047005.9,N
1561000235.7,286047003.4,N
1561000255.5,286047002.1,N
1561000275.4,286047004.0,N
1561000295.2,286046996.5,N
1561000315.1,286046993.6,N
1561000316.0,286046993.6,N
1561000335.8,286046990.1,N
1561000355.6,286046992.3,N
1561000375.5,286046994.0,N
1561000395.3,286046995.1,N
1561000415.1,286046993.9,N
1561000435.9,286046994.8,N
1561000455.7,286046992.5,N
1561000475.6,286046990.7,N
1561000495.4,286046992.5,N
1561000515.2,286046994.1,N
1561000535.1,286046994.3,N
1561000536.0,286046994.3,N
1561000555.8,286046997.4,N
1561000575.7,286046993.4,N
1561000595.5,286046992.0,N
1561000615.3,286046992.9,N
1561000635.2,286046991.3,N
1561000655.0,286046989.1,N
1561000655.9,286046989.1,N
1561000675.7,286046987.2,N
1561000695.6,286046988.7,N
1561000715.4,286046987.6,N
1561000735.3,286046987.4,N
1561000755.1,286046991.1,N
1561000756.0,286046991.1,N
1561000775.8,286046990.2,N
1561000795.7,286046991.7,N
1561000815.5,286046991.9,Y
1561000835.4,286047002.1,P
1561000855.2,286047004.0,N
1561000875.0,286047003.3,N
1561000875.9,286047003.3,N
1561000895.8,286047007.9,N
1561000915.6,286047009.5,N
1561000935.5,286047009.6,N
1561000955.3,286047007.8,N
1561000975.1,286047009.4,N
1561000995.9,286047010.6,N
1561001015.7,286047009.5,N
1561001035.5,286047009.7,N
1561001055.4,286047014.1,N
1561001075.2,286047009.7,N
1561001095.1,286047010.6,N
1561001096.0,286047010.6,N
1561001115.8,286047008.8,N
1561001135.6,286047009.0,N
1561001155.5,286047012.6,N
1561001175.3,286047015.2,Y
1561001195.2,286047002.6,P
1561001215.9,286047002.3,N
1561001235.7,286047002.2,N
1561001255.6,286046999.1,N
1561001275.4,286046994.8,N
1561001295.3,286046988.6,N
1561001315.1,286046991.2,N
1561001316.0,286046991.2,N
1561001335.8,286046988.1,N
1561001355.7,286046988.7,N
1561001375.5,286046987.4,N
1561001395.3,286046985.7,N
1561001415.2,286046989.9,N
1561001435.0,286046986.9,N
1561001435.9,286046986.9,N
1561001455.8,286046986.0,N
1561001475.6,286046986.8,N
1561001495.4,286046984.2,N
1561001515.3,286046983.7,N
1561001535.1,286046984.2,N
1561001555.9,286046979.4,N
1561001575.7,286046982.2,N
1561001595.5,286046982.1,N
1561001615.4,286046984.6,N
1561001635.2,286046985.3,N
1561001655.0,286046988.5,N
1561001655.9,286046988.5,N
1561001675.8,286046987.2,N
1561001695.6,286046986.6,N
1561001715.5,286046984.6,N
1561001735.3,286046984.0,N
1561001755.1,286046986.1,N
1561001775.9,286046986.2,N
1561001795.7,286046988.0,Y
1561001815.6,286046993.7,P
1561001835.4,286046993.2,N
1561001855.2,286046990.4,P
1561001875.1,286046991.1,Y
1561001876.0,286046991.1,P
1561001895.8,286046998.5,P
1561001915.7,286047003.7,N
1561001935.5,286046999.7,N
1561001955.3,286046998.8,N
1561001975.2,286046996.8,N
1561001995.9,286046993.9,N
1561002015.7,286046987.8,N
1561002035.6,286046988.3,N
1561002055.4,286046989.9,N
1561002075.2,286046990.7,N
1561002095.1,286046993.4,N
1561002096.0,286046993.4,N
1561002115.8,286046996.9,N
1561002135.7,286046996.6,N
1561002155.5,286046994.1,N
1561002175.3,286046996.3,N
1561002195.2,286046994.6,N
1561002215.0,286046993.6,N
1561002215.9,286046993.6,N
1561002235.8,286046990.4,N
1561002255.6,286046987.0,Y
1561002275.4,286046995.9,P
1561002295.3,286046997.2,P
1561002315.1,286046998.1,N
1561002335.8,286046997.2,N
1561002355.7,286046998.3,N
1561002375.5,286047002.7,N
1561002395.4,286046998.1,N
1561002415.2,286046998.4,N
1561002435.0,286046996.1,N
1561002435.9,286046996.1,N
1561002455.8,286046995.8,N
1561002475.6,286047002.1,N
1561002495.4,286047005.9,N
1561002515.3,286047000.6,N
1561002535.1,286047000.4,N
1561002555.9,286047003.7,N
1561002575.7,286047005.7,N
1561002595.5,286047006.5,N
1561002615.4,286047007.3,N
1561002635.2,286047006.5,N
1561002655.0,286047004.9,N
1561002655.9,286047004.9,N
1561002675.8,286047006.8,N
1561002725.7,286047011.3,E
1561002735.6,286047006.5,N
1561002755.4,286047005.9,P
1561002775.3,286047004.7,P
1561002795.1,286047005.9,Y
1561002796.0,286047005.9,P
1561002815.8,286046999.6,P
1561002835.7,286046999.5,N
1561002855.5,286046993.5,N
1561002875.3,286046995.3,N
1561002895.2,286046998.2,N
1561002915.0,286046997.1,N
1561002915.9,286046997.1,N
1561002935.8,286046999.1,N
1561002955.6,286047001.9,N
1561002975.4,286046999.7,N
1561002995.3,286046998.6,N
1561003015.1,286047002.5,N
1561003035.8,286047002.7,N
1561003055.7,286046995.3,N
1561003075.5,286046993.4,N
1561003095.4,286047001.0,N
1561003115.2,286046995.0,N
1561003135.0,286046997.7,N
1561003135.9,286046997.7,N
1561003155.8,286046995.2,N
1561003175.6,286046998.0,N
1561003195.4,286046999.9,N
